Regional Weather Roundup
Issued by NWS Lake Charles, LA

Home | Current Version | Previous Version | Text Only | Print | Product List | Glossary On
Versions: 1 2 3 4 5 6 7 8 9 10 11 12 13 14 15 16 17 18 19 20 21 22 23 24 25 26 27
000
ASUS44 KLCH 180710
RWRLCH
REGIONAL WEATHER ROUNDUP
NATIONAL WEATHER SERVICE LAKE CHARLES LA
100 AM CST SUN FEB 18 2018

Note: "fair" indicates few or no clouds below 12,000 feet with no
significant weather and/or obstructions to visibility.


ACROSS SOUTHEAST TEXAS

CITY           SKY/WX    TMP DP  RH WIND       PRES   REMARKS
BEAUMONT       CLOUDY    61  60  97 NE6       30.12F FOG
BEAUMONT CITY  CLOUDY    61  58  91 N6        30.14S
ORANGE         CLOUDY    61  61 100 NE3       30.15S FOG
JASPER         CLOUDY    57  56  95 NE3       30.18S
$$

ACROSS CENTRAL LOUISIANA

CITY           SKY/WX    TMP DP  RH WIND       PRES   REMARKS
LEESVILLE      CLOUDY    56  55  96 CALM      30.16S
FULLERTON      CLOUDY    59  55  87 VRB3      30.14S
ALEXANDRIA INT CLOUDY    55  52  89 NE7       30.16F
ESLER FIELD    CLOUDY    54  52  93 NE6       30.17F
DERIDDER       CLOUDY    57  56  95 CALM      30.17F FOG
OAKDALE        CLOUDY    58  56  94 NE6       30.16S
OPELOUSAS      CLOUDY    58  57  94 N6        30.16S
$$

ACROSS SOUTHWEST AND SOUTH CENTRAL LOUISIANA

CITY           SKY/WX    TMP DP  RH WIND       PRES   REMARKS
SULPHUR        CLOUDY    62  61  96 NE9       30.14S FOG
LAKE CHARLES   CLOUDY    62  60  93 NE7       30.13S
CHENNAULT INT  CLOUDY    61  60  95 N6        30.15S
CAMERON PHI    FOG       64  64 100 CALM      30.13S VSB 1/4
DEQUINCY       CLOUDY    58  57  96 CALM      30.15S
JENNINGS       CLOUDY    62  60  93 NE7       30.15S
LAFAYETTE      CLOUDY    63  61  93 N7        30.15S
NEW IBERIA     MOCLDY    64  60  87 N7        30.15R
ABBEVILLE      PTSUNNY   65  65 100 N6        30.14S
PATTERSON      FOG       67  67 100 NW3       30.14S VSB 1/2
SALT POINT       N/A     66  65  96 CALM      30.12S
$$

SELECTED SITES ACROSS THE REGION

CITY           SKY/WX    TMP DP  RH WIND       PRES   REMARKS
HOUSTON BUSH   CLOUDY    60  55  83 NE8       30.13F
HOUSTON HOBBY  CLOUDY    62  58  86 N7        30.12S
GALVESTON      CLOUDY    66  63  90 N5        30.11F
COLLEGE STAT   LGT RAIN  52  52 100 NE7       30.15F FOG
CONROE         CLOUDY    56  55  97 VRB5      30.14S
HUNTSVILLE     LGT RAIN  53  52  96 VRB5      30.15F FOG
LUFKIN         LGT RAIN  53  52  96 NE6       30.16F FOG
SHREVEPORT     CLOUDY    50  49  96 NE9       30.18F
MONROE         CLOUDY    49  46  90 NE9       30.22F
NATCHEZ MS     CLOUDY    53  52  96 NE7       30.19F
BATON ROUGE    CLOUDY    62  60  93 NE5       30.15S
N.O. INTL ARPT CLOUDY    69  67  93 CALM      30.14S
SLIDELL        CLOUDY    68  63  84 CALM      30.13S
$$

MARINE REPORTS

STATION/POSITION TIME  SKY/WX   TEMP    WIND        PRES    VSBY
                                AIR SEA DIR/SP/G
                 (UTC)          (F)     (DEG/KT/KT) (MB)    (MI)
BUOY 30 S HIGH I 0550            63 62  180/  4/  4 1019.7
WVE H/P(F/S)=  2/ 6

SEA RIM ST PARK  0700            63      40/  5/  6 1020.4S
PORT ARTHUR      0642            61 61   30/  4/  6 1020.4S
SABINE PASS N    0642            63 67   10/  7/  8 1021.7R
TEXAS POINT      NOT AVBL
CALCASIEU PASS   0648            64 62  340/  4/  4 1019.1S
LK CHARLES BEACH 0648            61 65              1020.1S
MARSH ISLAND     0600            65                   N/A
FRESH WATER LOCK 0648            66 69  150/  2/  2 1020.4S
AMERADA PASS     0648            66 57     CALM     1020.4S
$$




USA.gov is the U.S. government's official web portal to all federal, state and local government web resources and services.